sat.trackr.live / text

‹ back to catalog

STARLINK-5348

NORAD 56515 · 2023-065N

PAYLOAD ACTIVE UNKNOWN

§ Identity

Operator
Country
US
Launch date
2023-05-14
Launch site
AFETR
Launch vehicle
Mass (kg)
RCS (m²)

Purposes: comms

External: N2YO · Heavens-Above · Gunter

§ Orbital elements

Epoch: 2026-05-24T11:51:36.648288Z

Period
94.27 min
Inclination
43.0015°
Eccentricity
0.0001031
Mean motion
15.27576148 rev/d
Perigee alt
482.4 km
Apogee alt
483.8 km
Semi-major
6,861.2 km
B*
4.2249e-6
RAAN
144.3256°
Arg perigee
276.6646°
Mean anomaly
83.4089°
Rev number
16,819

§ Raw data

STARLINK-53481 56515U 23065N   26144.49417417 -.00000146  00000+0  42249-5 0  99992 56515  43.0015 144.3256 0001031 276.6646  83.4089 15.27576148168197

JSON: /api/v1/satellites/56515 · /tle

For live sub-satellite position, see the globe view (requires WebGL).

§ Visibility from observer

Set your observer location to see the next 7 days of passes ≥ 10°. The values pass through the URL so the page stays shareable.

No JS? Fill the form by hand. The geolocation button needs JavaScript.